RAPIDEYE 5

Last updated on Mon Sep 14 2020 06:43:38 GMT+0100 (British Summer Time)

1 33313U 08040B 20257.77494582 .00000109 00000-0 15400-4 0 9991 2 33313 97.6828 319.7004 0013871 325.9736 34.0594 14.94403632650905
UTC large
Height (km)
Speed (km/s)
/
Latitude / Longitude
Inclination (degrees)
Orbital Period (minutes)
Azimuth
Elevation
Range (km)
Doppler Factor

Next 0 passes for location: London (51.5072 / 0.1276)

Sorry there are no passes over London.